Augusta, Maine, United States (04330)
Lat: 44.31N, Lon: 69.78W
Wx Zone: MEZ021
Local Info
Past Weather Observations for Monday, July 27, 2015

NOTE: This archive is for the closest National Weather Service station to Augusta. Information may differ from the station used for current weather conditions.

Click here for Long-term Archive

Time Weather Temperature Dewpoint Humidity Pressure Winds Precip Visibility
23:53
Overcast
Fog And Mist
64°F / 18°C 64°F / 18°C 100% 30.01 in
(1016 mb)
SE 3.5 mph
(SE 6 kph)
- 2 1/2SM
22:53
Overcast
Fog And Mist
66°F / 19°C 64°F / 18°C 94% 30.01 in
(1016 mb)
SSE 6.9 mph
(SSE 11 kph)
- 6SM
21:53
Mostly Cloudy
Fog And Mist
66°F / 19°C 64°F / 18°C 94% 30.01 in
(1016 mb)
Calm - 6SM
21:42
Partly Cloudy
66°F / 19°C 64°F / 18°C 94% 30.01 in
(1016 mb)
Calm - 7SM
20:53
Clear
66°F / 19°C 64°F / 18°C 94% 30.01 in
(1016 mb)
SSE 4.6 mph
(SSE 7 kph)
- 8SM
19:53
Clear
70°F / 21°C 66°F / 19°C 88% 30.01 in
(1016 mb)
S 3.5 mph
(S 6 kph)
- 10SM
18:53
Clear
72°F / 22°C 66°F / 19°C 83% 30.01 in
(1016 mb)
SSE 4.6 mph
(SSE 7 kph)
- 10SM
17:53
Clear
73°F / 23°C 66°F / 19°C 78% 29.98 in
(1015 mb)
S 6.9 mph
(S 11 kph)
- 10SM
16:53
Partly Cloudy
75°F / 24°C 68°F / 20°C 78% 29.98 in
(1015 mb)
S 6.9 mph
(S 11 kph)
- 10SM
16:38
Mostly Cloudy
75°F / 24°C 66°F / 19°C 74% 29.98 in
(1015 mb)
SW 5.8 mph
(SW 9 kph)
- 10SM
15:53
Mostly Cloudy
77°F / 25°C 66°F / 19°C 69% 29.98 in
(1015 mb)
S 5.8 mph
(S 9 kph)
- 10SM
15:34
Mostly Cloudy
75°F / 24°C 66°F / 19°C 74% 30.01 in
(1016 mb)
S 5.8 mph
(S 9 kph)
- 10SM
15:00
Mostly Cloudy
75°F / 24°C 66°F / 19°C 74% 30.01 in
(1016 mb)
Variable 3.5 mph
(Variable 6 kph)
- 10SM
14:53
Partly Cloudy
77°F / 25°C 66°F / 19°C 69% 30.01 in
(1016 mb)
SSE 3.5 mph
(SSE 6 kph)
- 10SM
14:27
Partly Cloudy
77°F / 25°C 66°F / 19°C 69% 30.01 in
(1016 mb)
Calm - 10SM
13:53
Overcast
75°F / 24°C 66°F / 19°C 74% 30.04 in
(1017 mb)
Calm - 10SM
12:53
Overcast
73°F / 23°C 64°F / 18°C 74% 30.04 in
(1017 mb)
SSE 4.6 mph
(SSE 7 kph)
- 10SM
11:53
Overcast
73°F / 23°C 64°F / 18°C 74% 30.04 in
(1017 mb)
NNW 4.6 mph
(NNW 7 kph)
- 10SM
11:19
Overcast
72°F / 22°C 64°F / 18°C 78% 30.04 in
(1017 mb)
N 5.8 mph
(N 9 kph)
- 10SM
10:53
Overcast
72°F / 22°C 64°F / 18°C 78% 30.04 in
(1017 mb)
N 8.1 mph
(N 13 kph)
- 10SM
10:00
Overcast
70°F / 21°C 64°F / 18°C 83% 30.04 in
(1017 mb)
Variable 3.5 mph
(Variable 6 kph)
- 10SM
09:53
Overcast
70°F / 21°C 64°F / 18°C 83% 30.06 in
(1018 mb)
N 3.5 mph
(N 6 kph)
- 10SM
08:53
Overcast
68°F / 20°C 64°F / 18°C 88% 30.06 in
(1018 mb)
Variable 3.5 mph
(Variable 6 kph)
- 10SM
08:35
Overcast
66°F / 19°C 63°F / 17°C 88% 30.06 in
(1018 mb)
NNW 4.6 mph
(NNW 7 kph)
- 10SM
07:53
Overcast
64°F / 18°C 63°F / 17°C 94% 30.06 in
(1018 mb)
Calm - 10SM
06:53
Overcast
64°F / 18°C 63°F / 17°C 94% 30.04 in
(1017 mb)
Calm - 10SM
05:53
Overcast
63°F / 17°C 63°F / 17°C 100% 30.04 in
(1017 mb)
Calm - 7SM
05:44
Overcast
Fog And Mist
63°F / 17°C 63°F / 17°C 100% 30.04 in
(1017 mb)
Calm - 5SM
05:37
Overcast
Fog And Mist
63°F / 17°C 63°F / 17°C 100% 30.04 in
(1017 mb)
Calm - 2 1/2SM
04:53
Obscured
Fog
63°F / 17°C 61°F / 16°C 94% 30.04 in
(1017 mb)
NE 3.5 mph
(NE 6 kph)
- 1/2SM
04:37
Overcast
Fog And Mist
63°F / 17°C 63°F / 17°C 100% 30.01 in
(1016 mb)
Calm - 1 1/4SM
04:18
Overcast
Fog And Mist
63°F / 17°C 61°F / 16°C 94% 30.04 in
(1017 mb)
Calm - 2SM
03:53
Obscured
Fog And Mist
63°F / 17°C 61°F / 16°C 94% 30.01 in
(1016 mb)
Calm - 3/4SM
03:21
Obscured
Fog
63°F / 17°C 61°F / 16°C 94% 30.01 in
(1016 mb)
NE 3.5 mph
(NE 6 kph)
- 1/2SM
02:53
Obscured
Fog
63°F / 17°C 61°F / 16°C 94% 30.01 in
(1016 mb)
NE 5.8 mph
(NE 9 kph)
- 1/4SM
01:53
Obscured
Fog
63°F / 17°C 61°F / 16°C 94% 30.01 in
(1016 mb)
E 4.6 mph
(E 7 kph)
- 1/4SM
00:53
Obscured
Fog
63°F / 17°C 63°F / 17°C 100% 30.01 in
(1016 mb)
Calm - 1/4SM
Time Weather Temperature Dewpoint Humidity Pressure Winds Precip Visibility


Weather for websites

WeatherForYou.com, LLC is not responsible for any damages or problems caused by this service. Current weather conditions are obtained from the closest station including government and personal stations which may have varying degrees of accuracy. Weather forecasts are derived from the NOAA NDFD. Like all things, this site belongs to Jesus Christ... He just trusts us to maintain it. If you have any questions or comments email webmaster@weatherforyou.com

Copyright © 2015, WeatherForYou.com LLC. All rights reserved.